Hourly Data Report for October 23, 2015

All times are specified in Local Standard Time (LST). Add 1 hour to adjust for Daylight Saving Time where and when it is observed.

CLYDE RIVER A
NUNAVUT

70°29'09.000" N
68°31'01.000" W
26.50 m
2400804
71090
YCY

Download Data

Hourly Data (October 2015)
Hourly Data Report for October 23, 2015
Temp Definition
°C
Dew Point Temp Definition
°C
Rel Hum Definition
%
Wind Dir Definition
10's deg

Wind Spd Definition
km/h
Visibility Definition
km
Stn Press Definition
kPa
Hmdx Definition


Wind Chill Definition


Weather Definition


TIME
00:00 Legend Double Dagger -10.2 -14.5 71 28 21 16.1 100.16   -18 LegendNANA
01:00 Legend Double Dagger -10.8 -15.7 67 25 11 16.1 100.21   -17 LegendNANA
02:00 Legend Double Dagger -8.5 -14.7 61 25 5 16.1 100.24   -11 LegendNANA
03:00 Legend Double Dagger -9.7 -15.3 64 LegendMM 4 16.1 100.26   -12 LegendNANA
04:00 Legend Double Dagger -8.4 -13.5 67 22 8 16.1 100.29   -13 LegendNANA
05:00 Legend Double Dagger -8.2 -14.3 62 25 21 16.1 100.29   -16 LegendNANA
06:00 Legend Double Dagger -7.7 -13.4 64 LegendMM 9 16.1 100.30   -12 LegendNANA
07:00 Legend Double Dagger -9.6 -14.1 70 24 11 16.1 100.29   -15 LegendNANA
08:00 Legend Double Dagger -7.9 -11.3 77 24 41 8.1 100.25   -18 Haze
09:00 Legend Double Dagger -8.2 -12.0 74 23 37 16.1 100.23   -18 LegendNANA
10:00 Legend Double Dagger -7.8 -12.4 70 24 37 16.1 100.20   -18 LegendNANA
11:00 Legend Double Dagger -7.4 -10.8 77 22 41 11.3 100.20   -17 LegendNANA
12:00 Legend Double Dagger -6.9 -10.9 73 24 34 16.1 100.20   -16 LegendNANA
13:00 Legend Double Dagger -6.5 -11.0 71 24 21 16.1 100.15   -14 LegendNANA
14:00 Legend Double Dagger -6.6 -11.9 66 19 8 16.1 100.13   -10 LegendNANA
15:00 Legend Double Dagger -5.6 -10.1 71 22 22 16.1 100.07   -13 LegendNANA
16:00 Legend Double Dagger -5.7 -9.8 73 LegendMM LegendMM LegendMM 99.99     LegendNANA
17:00 Legend Double Dagger -5.4 -9.8 72 22 35 16.1 99.94   -14 LegendNANA
18:00 Legend Double Dagger -5.1 -9.6 71 22 32 16.1 99.88   -13 LegendNANA
19:00 Legend Double Dagger -5.0 -9.2 73 19 24 16.1 99.80   -12 LegendNANA
20:00 Legend Double Dagger -5.5 -8.8 78 17 18 16.1 99.73   -12 LegendNANA
21:00 Legend Double Dagger -5.2 -8.5 78 18 28 16.1 99.63   -13 LegendNANA
22:00 Legend Double Dagger -5.3 -8.7 77 17 21 16.1 99.54   -12 LegendNANA
23:00 Legend Double Dagger -4.6 -7.9 78 19 26 16.1 99.41   -12 LegendNANA

Notes on Data Quality.

Legend

  • E = Estimated
  • M = Missing
  • NA = Not Available
  • ‡ = Partner data that is not subject to review by the National Climate Archives
Date modified: